Date String (YYYY-MM-DD hh:mm:ss) UTC,Instrument flags,absolute air pressure of the measurement (hPa),sample flow rate (lpm),inlet stack bypass flow (lpm),air temperature of the measurement (°C),ambient temperature measured by the external sensor (°C),aerosol sample conditioner tube jacket temperature (°C),OPC LED temperature (°C),internal box temperature (°C),relative humidity of the measurement (%),span deviation,mass concentration of particles derived from Lorenz-Mie calculation of OPC scattering (μg/m³),mass concentration of particles derived from Lorenz-Mie calculation of OPC scattering (μg/m³),mass concentration of particles derived from Lorenz-Mie calculation of OPC scattering (μg/m³)
DateTimeUTC,F1_M11,P_M11,Q1_M11,Q2_M11,T1_M11,T2_M11,T3_M11,T4_M11,T5_M11,U1_M11,ZSPAN_M11,X0_M11,X2_M11,X1_M11
2024-05-04 10:00:00,SystemResetWarning,0831.6,5.01,000.00,020.5,020.0,000.0,028.9,022.3,020.1,0000.0,0003.41,0001.21,0000.92
2024-05-04 10:01:00,SystemResetWarning,0831.6,5.00,000.00,020.5,020.0,000.0,028.9,022.3,020.1,0000.0,0003.34,0001.18,0000.90
2024-05-04 10:02:00,SystemResetWarning,0831.6,5.00,000.00,020.5,020.0,000.0,028.9,022.3,020.2,0000.0,0002.63,0001.20,0000.91
2024-05-04 10:03:00,SystemResetWarning,0831.6,5.00,000.00,020.5,020.1,000.0,028.9,022.3,020.2,0000.0,0002.02,0001.19,0000.91
2024-05-04 10:04:00,SystemResetWarning,0831.6,5.00,000.00,020.5,020.1,000.0,028.9,022.4,020.1,0000.0,0001.91,0001.15,0000.90
2024-05-04 10:05:00,SystemResetWarning,0831.7,4.99,000.00,020.6,020.1,000.0,029.0,022.4,020.2,0000.0,0001.72,0001.13,0000.90
2024-05-04 10:06:00,SystemResetWarning,0831.7,5.00,000.00,020.6,020.1,000.0,029.0,022.4,020.1,0000.0,0001.87,0001.16,0000.90
2024-05-04 10:07:00,SystemResetWarning,0831.6,4.99,000.00,020.6,020.1,000.0,029.0,022.4,020.1,0000.0,0001.85,0001.15,0000.89
2024-05-04 10:08:00,SystemResetWarning,0831.6,5.00,000.00,020.6,020.1,000.0,029.0,022.4,020.0,0000.0,0001.93,0001.18,0000.89
2024-05-04 10:09:00,SystemResetWarning,0831.7,5.00,000.00,020.6,020.1,000.0,029.0,022.4,020.1,0000.0,0001.94,0001.18,0000.90
2024-05-04 10:10:00,SystemResetWarning,0831.7,5.00,000.00,020.6,020.1,000.0,029.0,022.4,020.0,0000.0,0001.88,0001.19,0000.90
2024-05-04 10:11:00,SystemResetWarning,0831.7,5.01,000.00,020.6,020.1,000.0,029.0,022.3,019.9,0000.0,0001.82,0001.16,0000.90
2024-05-04 10:12:00,SystemResetWarning,0831.7,5.00,000.00,020.6,020.1,000.0,029.0,022.3,020.0,0000.0,0002.07,0001.15,0000.90
2024-05-04 10:13:00,SystemResetWarning,0831.7,5.00,000.00,020.6,020.1,000.0,029.0,022.3,020.1,0000.0,0003.54,0001.12,0000.90
2024-05-04 10:14:00,SystemResetWarning,0831.7,5.00,000.00,020.6,020.1,000.0,029.0,022.3,020.2,0000.0,0003.59,0001.12,0000.90
2024-05-04 10:15:00,SystemResetWarning,0831.7,5.00,000.00,020.6,020.1,000.0,029.0,022.3,020.1,0000.0,0003.70,0001.15,0000.90
2024-05-04 10:16:00,SystemResetWarning,0831.7,5.00,000.00,020.6,020.0,000.0,029.0,022.2,020.1,0000.0,0003.65,0001.15,0000.91
2024-05-04 10:17:00,SystemResetWarning,0831.6,5.00,000.00,020.5,020.0,000.0,029.0,022.2,020.2,0000.0,0003.51,0001.13,0000.90
2024-05-04 10:18:00,SystemResetWarning,0831.6,5.00,000.00,020.5,020.0,000.0,029.0,022.2,020.2,0000.0,0003.50,0001.13,0000.91
2024-05-04 10:19:00,SystemResetWarning,0831.7,5.00,000.00,020.5,020.0,000.0,029.0,022.2,020.2,0000.0,0003.47,0001.12,0000.91
2024-05-04 10:20:00,SystemResetWarning,0831.7,5.00,000.00,020.5,020.0,000.0,029.0,022.3,020.2,0000.0,0003.46,0001.12,0000.90
2024-05-04 10:21:00,SystemResetWarning,0831.7,5.00,000.00,020.5,020.0,000.0,029.0,022.2,020.1,0000.0,0003.49,0001.13,0000.90
2024-05-04 10:22:00,SystemResetWarning,0831.7,5.00,000.00,020.5,020.0,000.0,029.0,022.2,020.2,0000.0,0003.48,0001.13,0000.91
2024-05-04 10:23:00,SystemResetWarning,0831.7,5.00,000.00,020.5,020.0,000.0,028.9,022.2,020.2,0000.0,0003.58,0001.17,0000.92
2024-05-04 10:24:00,SystemResetWarning,0831.8,4.99,000.00,020.5,020.0,000.0,029.0,022.3,020.2,0000.0,0002.08,0001.21,0000.93
2024-05-04 10:25:00,SystemResetWarning,0831.9,5.01,000.00,020.5,020.0,000.0,029.0,022.3,020.2,0000.0,0001.90,0001.24,0000.94
2024-05-04 10:26:00,SystemResetWarning,0831.7,5.01,000.00,020.5,020.0,000.0,029.0,022.3,020.0,0000.0,0001.89,0001.24,0000.95
2024-05-04 10:27:00,SystemResetWarning,0831.7,5.00,000.00,020.6,020.0,000.0,029.0,022.3,020.0,0000.0,0002.13,0001.26,0000.96
2024-05-04 10:28:00,SystemResetWarning,0831.8,5.00,000.00,020.6,020.0,000.0,029.0,022.3,020.0,0000.0,0002.14,0001.27,0000.97
2024-05-04 10:29:00,SystemResetWarning,0831.7,5.00,000.00,020.6,020.0,000.0,029.0,022.3,019.7,0000.0,0002.16,0001.28,0000.98
2024-05-04 10:30:00,SystemResetWarning,0831.9,4.99,000.00,020.6,020.1,000.0,029.0,022.4,020.1,0000.0,0002.18,0001.29,0000.99
2024-05-04 10:31:00,SystemResetWarning,0831.9,5.00,000.00,020.6,020.1,000.0,029.0,022.3,019.8,0000.0,0002.23,0001.30,0001.00
2024-05-04 10:32:00,SystemResetWarning,0831.7,5.00,000.00,020.6,020.1,000.0,029.0,022.3,019.7,0000.0,0002.26,0001.31,0001.00
2024-05-04 10:33:00,SystemResetWarning,0831.9,5.01,000.00,020.6,020.1,000.0,029.0,022.3,019.8,0000.0,0002.51,0001.38,0001.01
2024-05-04 10:34:00,SystemResetWarning,0832.0,5.00,000.00,020.6,020.1,000.0,029.0,022.4,019.6,0000.0,0002.49,0001.38,0001.01
2024-05-04 10:35:00,SystemResetWarning,0831.8,5.00,000.00,020.6,020.1,000.0,029.0,022.3,019.4,0000.0,0002.43,0001.36,0001.02
2024-05-04 10:36:00,SystemResetWarning,0831.8,4.99,000.00,020.6,020.0,000.0,029.0,022.3,019.3,0000.0,0002.39,0001.34,0001.02
2024-05-04 10:37:00,SystemResetWarning,0831.9,5.00,000.00,020.6,020.0,000.0,029.0,022.3,019.5,0000.0,0002.32,0001.32,0001.02
2024-05-04 10:38:00,SystemResetWarning,0832.4,5.00,000.00,020.6,020.0,000.0,029.0,022.3,019.7,0000.0,0002.19,0001.31,0001.03
2024-05-04 10:39:00,SystemResetWarning,0832.1,5.00,000.00,020.6,020.0,000.0,029.0,022.3,019.7,0000.0,0002.10,0001.30,0001.02
2024-05-04 10:40:00,SystemResetWarning,0831.9,5.00,000.00,020.6,020.0,000.0,029.0,022.3,019.6,0000.0,0002.06,0001.29,0001.02
2024-05-04 10:41:00,SystemResetWarning,0831.7,5.00,000.00,020.6,020.0,000.0,029.0,022.3,019.8,0000.0,0002.07,0001.29,0001.02
2024-05-04 10:42:00,SystemResetWarning,0831.9,5.00,000.00,020.6,020.1,000.0,029.0,022.3,019.7,0000.0,0002.07,0001.30,0001.02
2024-05-04 10:43:00,SystemResetWarning,0832.1,4.99,000.00,020.6,020.1,000.0,029.0,022.3,019.6,0000.0,0002.01,0001.29,0001.03
2024-05-04 10:44:00,SystemResetWarning,0831.9,5.01,000.00,020.6,020.1,000.0,029.0,022.4,019.6,0000.0,0001.82,0001.25,0001.04
2024-05-04 10:45:00,SystemResetWarning,0831.7,5.01,000.00,020.6,020.1,000.0,029.0,022.4,019.5,0000.0,0001.88,0001.25,0001.05
2024-05-04 10:46:00,SystemResetWarning,0831.7,5.00,000.00,020.6,020.1,000.0,029.0,022.3,019.5,0000.0,0001.92,0001.25,0001.05
2024-05-04 10:47:00,SystemResetWarning,0831.7,4.99,000.00,020.6,020.0,000.0,029.0,022.3,019.6,0000.0,0001.95,0001.25,0001.04
2024-05-04 10:48:00,SystemResetWarning,0831.7,5.00,000.00,020.6,020.0,000.0,029.0,022.3,019.8,0000.0,0002.24,0001.25,0001.03
2024-05-04 10:49:00,SystemResetWarning,0831.7,4.99,000.00,020.6,020.0,000.0,029.0,022.3,019.8,0000.0,0002.63,0001.23,0001.03
2024-05-04 10:50:00,SystemResetWarning,0831.7,5.00,000.00,020.6,020.0,000.0,029.0,022.3,019.4,0000.0,0002.66,0001.24,0001.03
2024-05-04 10:51:00,SystemResetWarning,0831.7,5.00,000.00,020.6,020.0,000.0,029.0,022.4,019.4,0000.0,0002.89,0001.26,0001.03
2024-05-04 10:52:00,SystemResetWarning,0831.7,5.00,000.00,020.6,020.1,000.0,029.0,022.4,019.5,0000.0,0002.79,0001.21,0001.02
2024-05-04 10:53:00,SystemResetWarning,0831.7,5.00,000.00,020.6,020.1,000.0,029.0,022.3,019.4,0000.0,0002.85,0001.21,0001.02
2024-05-04 10:54:00,SystemResetWarning,0831.7,5.00,000.00,020.6,020.0,000.0,029.0,022.3,019.3,0000.0,0002.97,0001.24,0001.01
2024-05-04 10:55:00,SystemResetWarning,0831.7,5.00,000.00,020.6,020.0,000.0,029.0,022.3,019.4,0000.0,0003.09,0001.24,0001.00
2024-05-04 10:56:00,SystemResetWarning,0831.7,5.00,000.00,020.6,020.0,000.0,029.0,022.3,019.4,0000.0,0002.94,0001.21,0000.98
2024-05-04 10:57:00,SystemResetWarning,0831.7,5.00,000.00,020.5,020.0,000.0,029.0,022.2,019.6,0000.0,0002.88,0001.19,0000.97
2024-05-04 10:58:00,SystemResetWarning,0831.8,5.00,000.00,020.6,020.0,000.0,029.0,022.3,019.6,0000.0,0002.82,0001.19,0000.97
2024-05-04 10:59:00,SystemResetWarning,0832.2,5.01,000.00,020.6,020.0,000.0,029.0,022.3,019.5,0000.0,0002.54,0001.18,0000.97
